Location: Bois de la Silve
(44.4667°N, 6.7833°E)
Time: 21:09:51
(UTC+00:00)

Lacrosse 5 - Pass Details

Date: 14 July 2020
Orbit: 717 x 720 km, 57.0° (Epoch: 11 August)

Event Time Altitude Azimuth Distance (km) Brightness Sun altitude
Exits shadow 01:49:49 - 278° (W) 2,921 4.8 -17.4°
Reaches altitude 10° 01:52:02 10° 290° (WNW) 2,202 4.2 -17.2°
Maximum altitude 01:56:07 24° 344° (NNW) 1,470 3.9 -16.8°
Drops below altitude 10° 02:00:14 10° 38° (NE) 2,206 5.7 -16.4°
Sets 02:03:03 0° 52° (NE) 3,128 6.6 -16.2°
